User: anonymous   Login
Location: *
(58.7167°N, 26.1833°E)
Time: 12:49:49
(UTC+00:00)
Language:

Spot 4 - Orbit

View from above orbital plane
View from above orbital plane
View from above satellite
View from above satellite

Ground track
Ground track

The orbit data is extracted from the following two-line orbital elements,

1 25260U 98017A   19289.86383655  .00000031  00000-0  18175-4 0  9993
2 25260  98.3048  16.8458 0013319 169.3123 190.8358 14.53594827125564
Epoch (UTC): 16 October 2019 20:43:55
Eccentricity: 0.0013319
inclination: 98.3048°
perigee height: 704 km
apogee height: 723 km
right ascension of ascending node: 16.8458°
argument of perigee: 169.3123°
revolutions per day: 14.53594827
mean anomaly at epoch: 190.8358°
orbit number at epoch: 12556

The dashed part of the orbit path shows where the satellite is in the earth's shadow,  

DLR